TimeCST,TemperatureF,Dew PointF,Humidity,Sea Level PressureIn,VisibilityMPH,Wind Direction,Wind SpeedMPH,Gust SpeedMPH,PrecipitationIn,Events,Conditions,WindDirDegrees,DateUTC
12:58 AM,62.1,61.0,96,30.03,0.2,Calm,Calm,-,0.01,Fog,Fog,0,2012-12-09 06:58:00
1:58 AM,62.1,61.0,96,30.03,0.2,Calm,Calm,-,N/A,Fog,Fog,0,2012-12-09 07:58:00
2:58 AM,62.1,62.1,100,30.03,0.2,Calm,Calm,-,N/A,Fog,Fog,0,2012-12-09 08:58:00
3:58 AM,63.0,62.1,97,30.03,0.2,Calm,Calm,-,N/A,Fog,Fog,0,2012-12-09 09:58:00
4:58 AM,63.0,62.1,97,30.05,0.2,Calm,Calm,-,N/A,Fog,Fog,0,2012-12-09 10:58:00
5:41 AM,62.6,62.6,100,30.07,1.0,Calm,Calm,-,N/A,,Overcast,0,2012-12-09 11:41:00
5:58 AM,63.0,62.1,97,30.06,1.5,Calm,Calm,-,N/A,,Overcast,0,2012-12-09 11:58:00
6:17 AM,62.6,62.6,100,30.08,2.5,Calm,Calm,-,N/A,,Overcast,0,2012-12-09 12:17:00
6:23 AM,62.6,62.6,100,30.08,3.0,Calm,Calm,-,N/A,,Overcast,0,2012-12-09 12:23:00
6:31 AM,62.6,62.6,100,30.08,4.0,Calm,Calm,-,N/A,,Overcast,0,2012-12-09 12:31:00
6:48 AM,62.6,62.6,100,30.08,4.0,Calm,Calm,-,N/A,,Overcast,0,2012-12-09 12:48:00
6:58 AM,63.0,62.1,97,30.08,5.0,Calm,Calm,-,N/A,,Overcast,0,2012-12-09 12:58:00
7:25 AM,64.4,62.6,94,30.09,3.0,Calm,Calm,-,N/A,,Overcast,0,2012-12-09 13:25:00
7:28 AM,64.4,62.6,94,30.09,1.5,SE,3.5,-,N/A,,Overcast,140,2012-12-09 13:28:00
7:36 AM,64.4,62.6,94,30.09,0.8,SE,3.5,-,N/A,,Overcast,140,2012-12-09 13:36:00
7:41 AM,64.4,62.6,94,30.09,1.5,SSE,5.8,-,N/A,,Overcast,160,2012-12-09 13:41:00
7:44 AM,64.4,62.6,94,30.09,3.0,SSE,5.8,-,N/A,,Overcast,160,2012-12-09 13:44:00
7:58 AM,64.0,63.0,96,30.09,6.0,South,6.9,-,N/A,,Overcast,170,2012-12-09 13:58:00
8:58 AM,66.0,62.1,87,30.11,10.0,South,6.9,-,N/A,,Mostly Cloudy,170,2012-12-09 14:58:00
9:30 AM,66.2,62.6,88,30.12,10.0,South,6.9,-,N/A,,Mostly Cloudy,170,2012-12-09 15:30:00
9:41 AM,68.0,62.6,83,30.12,10.0,South,5.8,-,N/A,,Mostly Cloudy,170,2012-12-09 15:41:00
9:52 AM,68.0,62.6,83,30.12,10.0,SSW,5.8,-,N/A,,Overcast,200,2012-12-09 15:52:00
9:58 AM,68.0,62.1,81,30.11,10.0,South,6.9,-,N/A,,Overcast,190,2012-12-09 15:58:00
10:10 AM,69.8,62.6,78,30.11,10.0,South,6.9,-,N/A,,Mostly Cloudy,180,2012-12-09 16:10:00
10:19 AM,69.8,62.6,78,30.11,10.0,South,8.1,-,N/A,,Mostly Cloudy,190,2012-12-09 16:19:00
10:24 AM,71.6,62.6,73,30.10,10.0,South,8.1,-,N/A,,Mostly Cloudy,190,2012-12-09 16:24:00
10:28 AM,71.6,62.6,73,30.10,10.0,South,6.9,-,N/A,,Scattered Clouds,190,2012-12-09 16:28:00
10:58 AM,71.1,61.0,70,30.08,10.0,SSW,8.1,-,N/A,,Partly Cloudy,210,2012-12-09 16:58:00
11:27 AM,73.4,60.8,65,30.08,10.0,Variable,6.9,-,N/A,,Mostly Cloudy,0,2012-12-09 17:27:00
11:36 AM,71.6,60.8,69,30.07,10.0,SW,8.1,-,N/A,,Mostly Cloudy,220,2012-12-09 17:36:00
11:58 AM,73.0,60.1,64,30.05,10.0,SSW,6.9,-,N/A,,Mostly Cloudy,210,2012-12-09 17:58:00
12:12 PM,75.2,60.8,61,30.05,10.0,SSW,10.4,16.1,N/A,,Mostly Cloudy,200,2012-12-09 18:12:00
12:16 PM,75.2,60.8,61,30.05,10.0,SSW,9.2,17.3,N/A,,Mostly Cloudy,210,2012-12-09 18:16:00
12:58 PM,75.0,57.9,55,30.02,10.0,Variable,6.9,18.4,N/A,,Scattered Clouds,0,2012-12-09 18:58:00
1:58 PM,75.0,59.0,57,30.01,10.0,South,9.2,-,N/A,,Mostly Cloudy,190,2012-12-09 19:58:00
2:58 PM,75.0,60.1,60,30.01,10.0,South,8.1,-,N/A,,Scattered Clouds,190,2012-12-09 20:58:00
3:58 PM,73.0,61.0,66,30.01,10.0,SSW,9.2,-,N/A,,Scattered Clouds,200,2012-12-09 21:58:00
4:58 PM,69.1,61.0,75,30.01,10.0,South,4.6,-,N/A,,Clear,180,2012-12-09 22:58:00
5:58 PM,66.9,61.0,81,30.01,10.0,South,3.5,-,N/A,,Clear,170,2012-12-09 23:58:00
6:58 PM,64.0,61.0,90,30.02,10.0,South,4.6,-,N/A,,Clear,180,2012-12-10 00:58:00
7:58 PM,64.9,61.0,87,30.01,10.0,South,5.8,-,N/A,,Clear,170,2012-12-10 01:58:00
8:58 PM,64.9,62.1,90,30.01,10.0,South,6.9,-,N/A,,Clear,180,2012-12-10 02:58:00
9:58 PM,64.9,62.1,90,30.00,10.0,South,4.6,-,N/A,,Clear,170,2012-12-10 03:58:00
10:38 PM,64.4,62.6,94,30.00,10.0,SSE,3.5,-,N/A,,Mostly Cloudy,160,2012-12-10 04:38:00
10:58 PM,64.0,62.1,93,29.98,10.0,SSE,4.6,-,N/A,,Mostly Cloudy,160,2012-12-10 04:58:00
11:03 PM,64.4,62.6,94,29.99,10.0,South,3.5,-,N/A,,Scattered Clouds,170,2012-12-10 05:03:00
11:17 PM,64.4,62.6,94,29.98,10.0,South,4.6,-,N/A,,Mostly Cloudy,170,2012-12-10 05:17:00
11:32 PM,64.4,62.6,94,29.98,10.0,South,5.8,-,N/A,,Overcast,170,2012-12-10 05:32:00
11:40 PM,64.4,62.6,94,29.98,10.0,South,5.8,-,N/A,,Mostly Cloudy,180,2012-12-10 05:40:00
11:58 PM,64.9,63.0,93,29.96,10.0,South,4.6,-,N/A,,Mostly Cloudy,180,2012-12-10 05:58:00